• In Uzbekistan
  • List of Countries
  • For 7 days
  • Water Temperature
  • Satellite Maps
  • Weather Map
  • Weather Widgets
  • user-avatar
    Login

    Hourly Weather Sarajevo

    Today, 25 February, Sunday

    Time Temperature Precipitation Wind Pressure Humidity
    00:00 -6°C° 0.2 mm 3 mps 684 mmHg 88%
    01:00 -6°C° 0.2 mm 3 mps 684 mmHg 88%
    02:00 -7°C° 0.3 mm 3 mps 684 mmHg 88%
    03:00 -7°C° 0.3 mm 3 mps 683 mmHg 88%
    04:00 -7°C° 0.3 mm 3 mps 683 mmHg 88%
    05:00 -7°C° 0.4 mm 3 mps 683 mmHg 89%
    06:00 -8°C° 0.4 mm 3 mps 683 mmHg 89%
    07:00 -8°C° 0.4 mm 3 mps 683 mmHg 90%
    08:00 -8°C° 0.4 mm 3 mps 683 mmHg 88%
    09:00 -8°C° 0.4 mm 3 mps 683 mmHg 87%
    10:00 -9°C° 0.4 mm 4 mps 684 mmHg 86%
    11:00 -9°C° 0.4 mm 4 mps 683 mmHg 86%
    12:00 -8°C° 0.4 mm 4 mps 683 mmHg 85%
    13:00 -8°C° 0.4 mm 4 mps 683 mmHg 85%
    14:00 -9°C° 0.4 mm 4 mps 683 mmHg 85%
    15:00 -9°C° 0.4 mm 4 mps 683 mmHg 86%
    16:00 -8°C° 0.4 mm 3 mps 682 mmHg 86%
    17:00 -9°C° 0.1 mm 3 mps 682 mmHg 87%
    18:00 -9°C° 0.1 mm 3 mps 682 mmHg 87%
    19:00 -10°C° 0.1 mm 3 mps 682 mmHg 87%
    20:00 -10°C° 0.1 mm 3 mps 681 mmHg 87%
    21:00 -12°C° 0.1 mm 3 mps 681 mmHg 87%
    22:00 -12°C° 0.1 mm 3 mps 681 mmHg 87%
    23:00 -12°C° 0 mm 3 mps 681 mmHg 87%

    Tomorrow, 26 February, Monday

    Time Temperature Precipitation Wind Pressure Humidity
    00:00 -13°C° 0 mm 3 mps 680 mmHg 87%
    01:00 -13°C° 0 mm 3 mps 680 mmHg 87%
    02:00 -13°C° 0.1 mm 3 mps 680 mmHg 87%
    03:00 -13°C° 0.1 mm 3 mps 679 mmHg 87%
    04:00 -13°C° 0.1 mm 3 mps 679 mmHg 87%
    05:00 -13°C° 0.1 mm 3 mps 679 mmHg 87%
    06:00 -13°C° 0.1 mm 3 mps 678 mmHg 87%
    07:00 -13°C° 0.1 mm 3 mps 678 mmHg 88%
    08:00 -12°C° 0.2 mm 3 mps 678 mmHg 87%
    09:00 -10°C° 0.2 mm 3 mps 678 mmHg 87%
    10:00 -10°C° 0.2 mm 3 mps 678 mmHg 86%
    11:00 -9°C° 0.4 mm 3 mps 678 mmHg 86%
    12:00 -8°C° 0.4 mm 3 mps 678 mmHg 86%
    13:00 -8°C° 0.4 mm 3 mps 678 mmHg 86%
    14:00 -8°C° 0.4 mm 3 mps 678 mmHg 86%
    15:00 -8°C° 0.4 mm 3 mps 678 mmHg 87%
    16:00 -8°C° 0.4 mm 3 mps 678 mmHg 87%
    17:00 -8°C° 0.3 mm 3 mps 678 mmHg 89%
    18:00 -8°C° 0.3 mm 2 mps 678 mmHg 90%
    19:00 -8°C° 0.3 mm 2 mps 678 mmHg 91%
    20:00 -9°C° 0.2 mm 2 mps 678 mmHg 91%
    21:00 -9°C° 0.2 mm 2 mps 678 mmHg 92%
    22:00 -9°C° 0.2 mm 2 mps 678 mmHg 92%
    23:00 -10°C° 0.2 mm 2 mps 678 mmHg 92%

    Day after tomorrow, 27 February, Tuesday

    Time Temperature Precipitation Wind Pressure Humidity
    00:00 -10°C° 0.2 mm 2 mps 678 mmHg 92%
    01:00 -9°C° 0.2 mm 1 mps 678 mmHg 92%
    02:00 -9°C° 0.1 mm 1 mps 678 mmHg 92%
    03:00 -10°C° 0.1 mm 1 mps 678 mmHg 92%
    04:00 -10°C° 0.1 mm 1 mps 678 mmHg 92%
    05:00 -10°C° 0.1 mm 1 mps 678 mmHg 92%
    06:00 -10°C° 0.1 mm 1 mps 679 mmHg 91%
    07:00 -10°C° 0.1 mm 1 mps 679 mmHg 91%
    08:00 -10°C° 0.1 mm 2 mps 679 mmHg 87%
    09:00 -9°C° 0.1 mm 2 mps 680 mmHg 84%
    10:00 -8°C° 0.1 mm 2 mps 681 mmHg 80%
    11:00 -7°C° 0 mm 2 mps 681 mmHg 77%
    12:00 -6°C° 0 mm 2 mps 681 mmHg 75%
    13:00 -6°C° 0 mm 2 mps 681 mmHg 73%
    14:00 -4°C° 0 mm 1 mps 681 mmHg 73%
    15:00 -4°C° 0 mm 1 mps 681 mmHg 73%
    16:00 -4°C° 0 mm 1 mps 682 mmHg 73%
    17:00 -7°C° 0 mm 1 mps 682 mmHg 78%
    18:00 -8°C° 0 mm 1 mps 682 mmHg 82%
    19:00 -10°C° 0 mm 1 mps 682 mmHg 86%
    20:00 -11°C° 0 mm 1 mps 682 mmHg 87%
    21:00 -11°C° 0 mm 1 mps 682 mmHg 88%
    22:00 -12°C° 0 mm 1 mps 682 mmHg 89%
    23:00 -12°C° 0 mm 1 mps 682 mmHg 89%

    28 February, Wednesday

    Time Temperature Precipitation Wind Pressure Humidity
    00:00 -13°C° 0 mm 1 mps 682 mmHg 89%
    01:00 -13°C° 0 mm 1 mps 682 mmHg 89%
    02:00 -13°C° 0 mm 1 mps 682 mmHg 89%
    03:00 -15°C° 0 mm 2 mps 682 mmHg 89%
    04:00 -16°C° 0 mm 2 mps 682 mmHg 88%
    05:00 -16°C° 0 mm 2 mps 682 mmHg 88%
    06:00 -16°C° 0 mm 2 mps 682 mmHg 88%
    07:00 -16°C° 0 mm 2 mps 682 mmHg 88%
    08:00 -13°C° 0 mm 2 mps 683 mmHg 85%
    09:00 -10°C° 0 mm 2 mps 684 mmHg 82%
    10:00 -8°C° 0 mm 2 mps 685 mmHg 78%
    11:00 -7°C° 0 mm 2 mps 685 mmHg 76%
    12:00 -6°C° 0 mm 2 mps 685 mmHg 74%
    13:00 -5°C° 0 mm 2 mps 685 mmHg 71%
    14:00 -5°C° 0 mm 2 mps 685 mmHg 73%
    15:00 -6°C° 0 mm 2 mps 686 mmHg 75%
    16:00 -6°C° 0 mm 2 mps 686 mmHg 76%
    17:00 -8°C° 0 mm 2 mps 686 mmHg 80%
    18:00 -10°C° 0 mm 2 mps 686 mmHg 85%
    19:00 -13°C° 0 mm 2 mps 686 mmHg 89%
    20:00 -13°C° 0 mm 2 mps 686 mmHg 89%
    21:00 -12°C° 0 mm 1 mps 687 mmHg 89%
    22:00 -13°C° 0 mm 1 mps 687 mmHg 90%
    23:00 -13°C° 0 mm 1 mps 687 mmHg 88%

    1 March, Thursday

    Time Temperature Precipitation Wind Pressure Humidity
    00:00 -13°C° 0 mm 1 mps 687 mmHg 87%
    01:00 -13°C° 0 mm 1 mps 687 mmHg 86%
    02:00 -13°C° 0 mm 1 mps 687 mmHg 83%
    03:00 -13°C° 0 mm 1 mps 686 mmHg 80%
    04:00 -12°C° 0 mm 1 mps 686 mmHg 77%
    05:00 -11°C° 0 mm 1 mps 686 mmHg 75%
    06:00 -10°C° 0 mm 1 mps 686 mmHg 73%
    07:00 -10°C° 0 mm 1 mps 686 mmHg 70%
    08:00 -7°C° 0 mm 1 mps 687 mmHg 67%
    09:00 -3°C° 0 mm 1 mps 687 mmHg 64%
    10:00 -1°C° 0 mm 1 mps 687 mmHg 61%
    11:00 -2°C° 0 mm 2 mps 687 mmHg 64%
    12:00 -1°C° 0 mm 2 mps 687 mmHg 67%
    13:00 -1°C° 0 mm 2 mps 686 mmHg 70%
    14:00 -1°C° 0.2 mm 2 mps 686 mmHg 75%
    15:00 -1°C° 0.2 mm 2 mps 686 mmHg 80%
    16:00 -1°C° 0.2 mm 2 mps 685 mmHg 85%
    17:00 -2°C° 0.3 mm 2 mps 685 mmHg 87%
    18:00 0°C° 0.3 mm 1 mps 685 mmHg 90%
    19:00 -1°C° 0.3 mm 1 mps 685 mmHg 93%
    20:00 0°C° 0.4 mm 1 mps 685 mmHg 93%
    21:00 -2°C° 0.4 mm 2 mps 684 mmHg 93%
    22:00 -2°C° 0.4 mm 2 mps 684 mmHg 93%
    23:00 +1°C° 0.7 mm 1 mps 684 mmHg 94%

    2 March, Friday

    Time Temperature Precipitation Wind Pressure Humidity
    00:00 +1°C° 0.7 mm 1 mps 683 mmHg 94%
    01:00 +1°C° 0.7 mm 1 mps 683 mmHg 95%
    02:00 +2°C° 1 mm 1 mps 683 mmHg 95%
    03:00 +2°C° 1 mm 1 mps 682 mmHg 95%
    04:00 +2°C° 1 mm 1 mps 682 mmHg 96%
    05:00 +2°C° 1.2 mm 1 mps 681 mmHg 96%
    06:00 +3°C° 1.2 mm 1 mps 681 mmHg 96%
    07:00 +3°C° 1.2 mm 1 mps 681 mmHg 97%
    08:00 +3°C° 1.3 mm 1 mps 681 mmHg 97%
    09:00 +3°C° 1.3 mm 2 mps 681 mmHg 97%
    10:00 +3°C° 1.3 mm 2 mps 682 mmHg 97%
    11:00 +3°C° 1 mm 2 mps 681 mmHg 97%
    12:00 +4°C° 1 mm 2 mps 681 mmHg 97%
    13:00 +4°C° 1 mm 2 mps 681 mmHg 97%
    14:00 +4°C° 0.7 mm 2 mps 681 mmHg 97%
    15:00 +4°C° 0.7 mm 1 mps 681 mmHg 98%
    16:00 +4°C° 0.7 mm 1 mps 681 mmHg 98%
    17:00 +4°C° 0.7 mm 1 mps 681 mmHg 98%
    18:00 +4°C° 0.7 mm 1 mps 681 mmHg 98%
    19:00 +4°C° 0.7 mm 1 mps 682 mmHg 97%
    20:00 +4°C° 1.2 mm 1 mps 682 mmHg 97%
    21:00 +4°C° 1.2 mm 1 mps 682 mmHg 97%
    22:00 +4°C° 1.2 mm 1 mps 682 mmHg 97%
    23:00 +4°C° 1.5 mm 1 mps 682 mmHg 98%
    Show more